Home > Weather > Amberg > Past weeks

Flag for Germany Weather for the Past 2 Weeks in Amberg, Bavaria, Germany

Now
28 °F

Mostly cloudy.


Feels Like: 28 °F
Forecast: 36 / 45 °F
Wind: 1 mph from North

Location: Hohenfels

Current Time: Feb 13, 2016 at 6:04:24 AM

Latest Report: Feb 13, 2016 at 4:58 AM


Visibility: N/A

Pressure: 29.42 "Hg

Humidity: 100%

Dew point: 28 °F

Location of AmbergLocation

Historic Weather in Amberg — Graph

°F

Amberg Temperature Yesterday

Maximum temperature yesterday: 39 °F (at 2:58 PM)
Minimum temperature yesterday: 27 °F (at 11:58 PM)
Average temperature yesterday: 33 °F

High & Low Weather Summary for the Past Weeks

 TemperatureHumidityPressure
High54 °F (Feb 8, 2:58 PM)100% (Jan 29, 4:58 AM)30.45 "Hg (Jan 29, 4:58 AM)
Low25 °F (Feb 13, 1:58 AM)47% (Feb 8, 1:58 PM)29.23 "Hg (Feb 9, 10:00 PM)
Average39 °F86%29.94 "Hg
* Reported Jan 29 4:01 AM — Feb 13 4:58 AM, Amberg, Weather by CustomWeather, © 2016

Note: Actual official high and low records may vary slightly from our data, if they occured in-between our weather recording intervals... More about our weather records

Advertising

Amberg Weather History for the Previous 24 Hours

 ConditionsComfort  
Time TempWeatherWind HumidityBarometerVisibility
4:58 AM
Sat, Feb 13
28 °FMostly cloudy.1 mph100%29.42 "HgN/A
3:58 AM27 °FMostly cloudy.1 mph100%29.42 "HgN/A
2:58 AM27 °FOvercast.2 mph93%29.42 "HgN/A
1:58 AM25 °FClear.2 mph100%29.44 "HgN/A
12:58 AM27 °FPassing clouds.No wind100%29.44 "HgN/A
11:58 PM
Fri, Feb 12
27 °FOvercast.1 mph100%29.45 "HgN/A
10:58 PM28 °FPassing clouds.No wind93%29.46 "HgN/A
9:58 PM28 °FClear.2 mph93%29.46 "HgN/A
8:58 PM28 °FClear.3 mph100%29.49 "HgN/A
7:58 PM30 °FPassing clouds.2 mph93%29.49 "HgN/A
6:58 PM30 °FOvercast.2 mph93%29.50 "HgN/A
5:58 PM34 °FClear.2 mph75%29.50 "HgN/A
4:58 PM37 °FSunny.7 mph65%29.52 "HgN/A
3:58 PM39 °FSunny.7 mph65%29.55 "HgN/A
2:58 PM39 °FSunny.9 mph65%29.57 "HgN/A
1:58 PM37 °FSunny.7 mph81%29.60 "HgN/A
12:59 PM37 °FScattered clouds.1 mph81%29.58 "HgN/A
11:58 AM34 °FLow clouds.3 mph93%29.62 "HgN/A
10:58 AM36 °FPartly sunny.5 mph100%29.70 "HgN/A
9:58 AM32 °FIce fog.2 mph100%29.72 "Hg4 mi
8:58 AM32 °FIce fog.No wind100%29.74 "Hg4 mi
7:58 AM30 °FIce fog.No wind100%29.75 "Hg3 mi
7:02 AM32 °FIce fog.No wind93%29.68 "Hg1 mi
6:03 AM32 °FIce fog.No wind100%29.69 "Hg4 mi
6:00 AM32 °FIce fog.No wind100%29.69 "Hg5 mi
Weather by CustomWeather, © 2016

See weather overviewHow to use our weather pages